Starlink 4718

operational
NORAD ID: 53773 Int'l Des: 2022-111 Owner: SPXS Country: US Constellation: starlink
LEOCIRCULAR

关于 Starlink 4718

正在加载描述...

实时位置

正在加载3D地球...

即将过境

高度历史

Altitude vs Time

uPlot chart will show altitude changes over time

两行轨道根数

1 53773U 22111A 25343.25052020 .00000250 00000-0 33823-4 0 9995
2 53773 53.2185 330.0412 0001352 90.2819 269.8328 15.08836482180196
Epoch: Dec 9, 2025 • Age: 14 hours

当前状态

高度 541.0 km
速度 7.59 km/s
星下点 -2.36°S, 137.41°E
发射日期 Sep 11, 2022
运行时间 3.2 years
类型 internet

技术详情

分类 Payload
质量 305.00 kg
干质量 290.00 kg
总质量 305.00 kg
长度 0.20 m
直径 2.80 m
跨度 9.00 m
形状 Box + pan
制造商 SPXS
平台类型 Starlink
阶段状态 In Orbit
所有者/国家 SPXS/US

大型星座

Loading constellations...